BEIJING 1 1 28890U 05043A 26254.84047638 .00000279 00000+0 63136-4 0 9998 2 28890 98.3032 28.5944 0015028 15.7386 344.4280 14.63575950113322 HUANJING 1A (HJ-1A) 1 33320U 08041A 26254.87270483 .00000678 00000+0 87182-4 0 9992 2 33320 97.6772 237.4091 0017788 210.2403 149.7786 14.84156775971265 HUANJING 1B (HJ-1B) 1 33321U 08041B 26254.88190825 .00000539 00000+0 71269-4 0 9990 2 33321 97.6603 240.3229 0034557 258.9020 100.8308 14.83458107971263 YAOGAN-4 1 33446U 08061A 26254.71776133 .00000644 00000+0 85095-4 0 9993 2 33446 97.9322 187.6017 0014967 143.8817 216.3411 14.83337308958496 DEIMOS-1 1 35681U 09041A 26254.86696639 .00000532 00000+0 85517-4 0 9998 2 35681 97.7513 48.3999 0000293 51.7955 308.3281 14.75312779919667 UK-DMC 2 1 35683U 09041C 26254.85802723 .00000160 00000+0 30304-4 0 9993 2 35683 97.8953 27.7685 0001310 70.2126 289.9224 14.76136199919356 DMC3-FM1 1 40715U 15032A 26254.81260024 -.00000067 00000+0 -18452-5 0 9999 2 40715 97.6333 116.5402 0006709 118.1496 242.0398 14.85814614602773 DMC3-FM2 1 40716U 15032B 26254.83424299 .00000238 00000+0 33232-4 0 9998 2 40716 97.6381 118.1924 0007097 123.7459 236.4434 14.85822714602774 DMC3-FM3 1 40717U 15032C 26254.85822179 .00000864 00000+0 10524-3 0 9993 2 40717 97.6431 120.0217 0006345 122.2139 237.9692 14.85813448602789